Total_Precipitation_Accumulation
1.73 2.19 2.74 3.59 4.67 5.57 5.85 5.36 4.88 4.55 4.14 3.75 3.17 2.82 2.80 2.72 2.42 2.13 1.86 1.80 1.75 1.84 1.98 1.82 2.01 1.85 1.91 2.00 2.06 2.16 2.16 2.08 2.14 2.31 2.25 1.91 1.64 1.60 1.55 1.63 1.84 1.74 1.71
1.89 2.61 3.64 4.22 4.46 4.59 4.36 4.03 3.78 3.59 3.13 2.79 2.58 2.35 2.36 2.15 1.97 1.88 1.88 1.60 1.53 1.62 1.60 1.82 1.84 1.80 1.96 2.01 1.96 2.06 2.04 1.89 1.91 2.17 2.40 2.10 1.93 1.57 1.16 1.28 1.30 1.38 1.65
2.07 2.88 3.45 3.57 3.29 2.97 2.89 2.84 2.91 2.68 2.57 2.55 2.44 2.34 2.38 2.13 1.89 1.80 1.78 1.52 1.35 1.37 1.47 1.56 1.65 1.81 1.75 1.89 1.95 1.87 1.92 1.96 1.90 1.92 2.24 2.22 2.05 1.75 1.28 1.10 1.15 1.31 1.50
1.61 2.02 2.26 2.15 2.26 2.41 2.43 2.55 2.64 2.39 2.38 2.35 2.08 1.99 1.91 1.82 1.71 1.66 1.63 1.71 1.46 1.31 1.29 1.35 1.45 1.61 1.56 1.79 1.62 1.73 1.92 1.99 1.85 1.80 1.72 1.76 1.84 1.96 1.69 1.32 1.13 1.23 1.29
0.99 1.10 1.22 1.38 1.60 1.71 1.88 2.17 2.42 2.37 2.21 2.06 2.01 2.09 1.95 1.91 1.89 1.90 1.88 1.85 1.69 1.46 1.31 1.38 1.44 1.50 1.45 1.51 1.54 1.85 1.86 1.78 1.72 1.68 1.69 1.68 1.67 1.64 1.69 1.54 1.33 1.23 1.03
0.85 0.88 0.94 1.09 1.26 1.38 1.55 1.80 2.11 2.25 2.18 2.03 1.95 2.00 2.07 2.05 1.97 1.95 1.90 1.70 1.59 1.55 1.41 1.41 1.45 1.38 1.36 1.37 1.41 1.67 1.70 1.73 1.77 1.73 1.61 1.67 1.61 1.56 1.70 1.51 1.32 1.19 0.86
0.88 0.95 0.91 0.88 0.94 1.09 1.24 1.34 1.53 1.82 1.93 1.90 1.89 1.91 2.06 1.99 1.81 1.69 1.62 1.56 1.37 1.29 1.32 1.37 1.44 1.27 1.27 1.39 1.57 1.65 1.64 1.69 1.69 1.60 1.51 1.49 1.34 1.41 1.52 1.42 1.21 1.18 0.95
0.78 0.81 0.79 0.76 0.74 0.83 1.01 1.14 1.36 1.55 1.73 1.75 1.74 1.78 1.86 1.80 1.67 1.69 1.51 1.45 1.37 1.29 1.34 1.36 1.34 1.26 1.28 1.32 1.63 1.55 1.54 1.60 1.55 1.42 1.62 1.54 1.27 1.39 1.44 1.49 1.64 1.49 1.31
0.59 0.70 0.75 0.83 0.82 0.80 0.92 1.06 1.30 1.51 1.70 1.80 1.82 1.76 1.77 1.81 1.80 1.74 1.55 1.38 1.49 1.38 1.43 1.40 1.35 1.34 1.45 1.60 1.76 1.63 1.62 1.69 1.52 1.51 1.70 1.61 1.45 1.46 1.42 1.55 1.75 1.86 1.62
0.63 0.83 0.97 0.93 0.78 0.67 0.74 0.92 1.13 1.43 1.62 1.80 1.82 1.71 1.86 1.82 1.81 1.74 1.61 1.46 1.46 1.44 1.50 1.49 1.45 1.53 1.56 1.68 1.77 1.64 1.70 1.70 1.61 1.65 1.79 1.77 1.63 1.62 1.55 1.58 1.72 1.94 1.90
0.72 0.87 1.04 1.00 0.78 0.67 0.65 0.77 1.05 1.32 1.50 1.64 1.73 1.67 1.66 1.61 1.62 1.65 1.63 1.59 1.56 1.49 1.47 1.50 1.51 1.51 1.55 1.62 1.68 1.59 1.63 1.62 1.65 1.66 1.71 1.70 1.80 1.82 1.75 1.86 1.91 1.98 2.09
0.78 0.71 0.80 0.96 0.91 0.79 0.70 0.84 1.11 1.32 1.41 1.46 1.44 1.44 1.50 1.50 1.45 1.42 1.48 1.53 1.45 1.38 1.44 1.48 1.45 1.37 1.45 1.60 1.59 1.52 1.61 1.63 1.59 1.68 1.83 1.74 1.80 1.86 1.92 2.08 1.98 2.03 2.29
0.58 0.57 0.66 0.79 0.95 0.91 0.84 0.97 1.14 1.25 1.29 1.21 1.20 1.23 1.27 1.28 1.28 1.29 1.36 1.44 1.47 1.46 1.43 1.40 1.33 1.33 1.40 1.47 1.48 1.56 1.66 1.70 1.73 1.81 1.90 1.93 2.10 2.01 2.05 2.10 2.06 2.11 2.35
0.62 0.58 0.64 0.80 0.91 0.96 0.94 0.94 1.03 1.17 1.19 1.12 1.19 1.31 1.36 1.38 1.40 1.39 1.46 1.55 1.61 1.56 1.56 1.54 1.57 1.58 1.53 1.53 1.59 1.67 1.74 1.76 1.82 1.97 2.00 2.00 2.07 2.13 2.26 2.26 2.35 2.50 2.68
0.63 0.62 0.69 0.86 0.93 1.08 1.11 1.07 1.07 1.12 1.21 1.28 1.38 1.56 1.71 1.71 1.61 1.61 1.71 1.79 1.83 1.77 1.89 1.88 1.86 1.90 1.84 1.66 1.77 1.84 1.81 1.92 1.86 1.94 1.98 1.94 2.04 2.10 2.21 2.17 2.36 2.67 2.85
0.59 0.55 0.66 0.86 0.88 0.89 0.96 0.95 0.98 1.02 1.04 1.12 1.26 1.46 1.66 1.76 1.77 1.83 1.94 1.95 1.92 2.02 2.09 2.02 2.03 2.03 1.80 1.91 1.96 1.94 2.00 2.05 2.01 2.02 2.03 1.99 1.97 1.89 1.93 2.01 2.14 2.33 2.53
0.58 0.59 0.64 0.75 0.91 0.84 0.81 0.90 0.96 1.06 1.16 1.33 1.51 1.63 1.79 1.92 1.94 1.90 1.94 1.98 1.98 1.97 2.03 2.05 2.07 1.97 1.92 1.93 1.79 1.80 1.82 1.93 1.99 2.02 2.02 1.85 1.72 1.75 1.67 1.81 1.88 1.87 1.93
0.78 0.84 0.90 0.91 0.99 0.97 0.94 1.00 1.05 1.17 1.23 1.30 1.46 1.59 1.78 1.90 1.97 2.06 2.11 2.18 2.23 2.24 2.24 2.16 2.13 2.10 1.99 1.88 1.73 1.78 1.66 1.71 1.76 1.80 1.82 1.81 1.71 1.70 1.79 1.78 1.66 1.51 1.50
0.87 0.93 0.99 1.03 1.03 1.11 1.19 1.27 1.26 1.37 1.50 1.52 1.68 1.82 1.91 2.05 2.11 2.16 2.28 2.38 2.45 2.40 2.37 2.34 2.36 2.37 2.36 2.27 1.98 1.87 1.71 1.75 1.75 1.74 1.74 1.72 1.59 1.71 1.65 1.60 1.60 1.51 1.43
0.98 1.02 0.98 0.99 1.10 1.17 1.27 1.39 1.54 1.67 1.83 1.91 1.96 2.03 2.15 2.22 2.20 2.21 2.28 2.31 2.34 2.34 2.33 2.27 2.32 2.30 2.32 2.39 2.09 1.86 1.65 1.69 1.72 1.80 1.81 1.82 1.67 1.73 1.66 1.62 1.65 1.56 1.48
1.16 1.12 1.10 1.14 1.18 1.19 1.27 1.43 1.63 1.79 1.86 1.92 1.99 2.09 2.19 2.38 2.47 2.48 2.35 2.20 2.19 2.24 2.33 2.32 2.36 2.34 2.28 2.22 1.88 1.74 1.67 1.73 1.77 1.71 1.67 1.71 1.72 1.55 1.45 1.40 1.40 1.47 1.50
1.25 1.25 1.24 1.22 1.24 1.33 1.39 1.50 1.67 1.79 1.87 1.88 1.99 2.10 2.15 2.16 2.20 2.42 2.47 2.38 2.28 2.20 2.23 2.30 2.26 2.18 2.11 1.98 1.68 1.42 1.40 1.49 1.53 1.53 1.51 1.51 1.48 1.29 1.16 1.03 1.02 1.09 1.08
1.16 1.18 1.23 1.27 1.32 1.38 1.49 1.63 1.70 1.78 1.82 1.93 2.09 2.23 2.25 2.29 2.26 2.26 2.32 2.28 2.20 2.06 1.90 1.95 2.00 2.01 2.01 1.89 1.60 1.32 1.21 1.22 1.18 1.27 1.48 1.48 1.35 1.23 1.14 1.08 1.00 0.92 0.85
1.19 1.24 1.24 1.28 1.42 1.54 1.68 1.71 1.70 1.78 1.96 2.05 2.11 2.15 2.17 2.15 2.21 2.30 2.22 2.15 2.14 2.07 1.89 1.90 1.95 1.99 1.99 1.86 1.64 1.48 1.37 1.32 1.25 1.28 1.43 1.49 1.46 1.37 1.28 1.18 1.02 0.85 0.84
1.15 1.24 1.32 1.36 1.45 1.54 1.66 1.74 1.77 1.83 1.92 1.88 1.83 1.89 1.97 1.97 1.95 2.09 2.14 1.95 1.87 1.94 1.89 1.96 2.14 2.10 1.92 1.76 1.60 1.42 1.39 1.38 1.42 1.43 1.52 1.63 1.64 1.60 1.48 1.32 1.17 1.06 1.01
1.10 1.19 1.27 1.38 1.44 1.48 1.54 1.57 1.63 1.74 1.86 1.91 1.87 1.84 1.86 1.89 1.89 1.88 1.91 1.87 1.66 1.64 1.58 1.64 1.73 1.78 1.69 1.59 1.51 1.41 1.36 1.29 1.29 1.30 1.44 1.70 1.77 1.77 1.74 1.62 1.43 1.28 1.18